VA3PC-13 Weather Reports


Display with metric or nautical units.
time (UTC)temp
F
wind
direction
speed
MPH
gust
MPH
rain 1hr
in
rain 24hr
in
rain mn
in
humidity
%
barometer
mb
20260502130521 36 300 1.0 3.0 0.00 0.02 0.00 70 985.2
20260502123540 35 300 0.0 1.0 0.00 0.02 0.00 71 985.3
20260502122518 35 55 1.0 3.0 0.00 0.02 0.00 72 985.2
20260502121521 34 42 1.0 2.0 0.00 0.02 0.00 72 985.3
20260502120518 34 334 1.0 2.0 0.00 0.02 0.00 73 985.3
20260502115519 34 351 1.0 3.0 0.00 0.02 0.00 74 985.3
20260502114518 33 283 1.0 3.0 0.00 0.02 0.00 76 985.4
20260502113540 33 312 1.0 3.0 0.00 0.02 0.00 76 985.2
20260502112519 32 359 1.0 4.0 0.00 0.02 0.00 78 985.3
20260502111540 32 304 0.0 2.0 0.00 0.02 0.00 79 985.3
20260502110519 32 322 0.0 1.0 0.00 0.02 0.00 80 985.4
20260502105519 32 316 0.0 2.0 0.00 0.02 0.00 79 985.3
20260502104519 33 18 0.0 2.0 0.00 0.02 0.00 78 985.2
20260502103520 34 42 0.0 2.0 0.00 0.02 0.00 76 985.2
20260502102518 34 299 0.0 2.0 0.00 0.02 0.00 76 984.9
20260502101520 34 48 1.0 2.0 0.00 0.02 0.00 75 984.7
20260502100520 35 48 1.0 3.0 0.00 0.02 0.00 74 984.6
20260502091520 35 25 0.0 2.0 0.00 0.02 0.00 74 984.4
20260502090520 35 0.0 0.0 0.00 0.02 0.00 74 984.4
20260502071519 36 63 1.0 3.0 0.00 0.02 0.00 69 984.0
20260502070519 36 66 0.0 2.0 0.00 0.02 0.00 70 984.1
20260502065519 36 346 0.0 2.0 0.00 0.02 0.00 70 984.0
20260502064539 36 54 0.0 2.0 0.00 0.02 0.00 71 984.1
20260502063520 36 56 0.0 2.0 0.00 0.02 0.00 75 984.1
20260502062536 36 74 0.0 0.0 0.00 0.02 0.00 78 984.1
20260502061520 36 54 0.0 2.0 0.00 0.02 0.00 75 984.1
20260502060519 36 37 0.0 1.0 0.00 0.02 0.00 76 984.1
20260502055520 36 0.0 0.0 0.00 0.02 0.00 77 984.0
20260502054520 36 22 0.0 2.0 0.00 0.02 0.00 76 984.0
20260502053519 36 54 0.0 1.0 0.00 0.02 0.00 78 984.1
20260502052517 36 83 0.0 1.0 0.00 0.02 0.00 79 984.1
20260502051520 36 50 0.0 1.0 0.00 0.02 0.00 76 984.1
20260502050520 37 75 0.0 2.0 0.00 0.02 0.00 75 984.1
20260502045520 37 65 0.0 1.0 0.00 0.02 0.00 75 984.1
20260502044518 37 56 1.0 5.0 0.00 0.02 0.00 74 984.1
20260502043518 37 339 0.0 3.0 0.00 0.02 0.00 75 984.0
20260502042518 37 41 1.0 4.0 0.00 0.02 0.00 74 983.9
20260502041518 37 68 1.0 3.0 0.00 0.02 0.00 75 983.9
20260502040518 37 50 2.0 5.0 0.00 0.02 0.00 75 983.9
20260502035518 37 64 2.0 5.0 0.00 0.02 0.02 76 983.9
20260502034518 37 58 1.0 2.0 0.00 0.02 0.02 78 983.9
20260502033519 36 45 0.0 2.0 0.00 0.02 0.02 89 983.8
20260502032519 36 60 0.0 2.0 0.00 0.02 0.02 90 983.8
20260502031518 36 310 0.0 0.0 0.00 0.02 0.02 91 983.8
20260502030520 36 340 0.0 1.0 0.00 0.02 0.02 90 983.8
20260502025519 36 281 0.0 1.0 0.00 0.02 0.02 90 983.9
20260502024519 36 0.0 0.0 0.00 0.02 0.02 90 983.9
20260502023519 36 338 0.0 0.0 0.00 0.02 0.02 90 983.9
20260502022519 36 318 0.0 1.0 0.00 0.02 0.02 89 983.9
20260502021520 37 0.0 0.0 0.00 0.02 0.02 89 983.9
20260502020520 37 63 0.0 1.0 0.00 0.02 0.02 89 983.8
20260502015517 37 231 0.0 1.0 0.00 0.02 0.02 87 983.9
20260502014518 37 13 0.0 2.0 0.00 0.02 0.02 87 984.0
20260502013520 37 17 1.0 2.0 0.00 0.02 0.02 87 983.9
20260502012520 37 51 1.0 4.0 0.00 0.02 0.02 87 983.8
20260502011518 38 47 1.0 3.0 0.00 0.02 0.02 86 983.7
20260502010518 38 324 1.0 3.0 0.00 0.02 0.02 85 983.7
20260502005558 38 50 1.0 3.0 0.00 0.02 0.02 85 983.6
20260502004518 38 50 1.0 5.0 0.00 0.02 0.02 85 983.6
20260502003523 38 60 1.0 3.0 0.00 0.02 0.02 85 983.5
20260502002519 38 312 1.0 3.0 0.00 0.02 0.02 84 983.5
20260502001518 38 14 0.0 2.0 0.00 0.02 0.02 85 983.4
20260502000518 39 25 1.0 3.0 0.00 0.02 0.02 84 983.3
20260501235518 39 14 0.0 2.0 0.00 0.02 0.02 84 983.1
20260501234519 39 15 0.0 2.0 0.00 0.02 0.02 84 983.0
20260501233520 39 15 0.0 1.0 0.00 0.02 0.02 84 983.0
20260501232519 39 321 0.0 1.0 0.00 0.02 0.02 83 983.0
20260501231539 39 305 0.0 3.0 0.00 0.02 0.02 82 983.0
20260501230519 39 300 0.0 1.0 0.00 0.02 0.02 82 982.9
20260501225600 39 297 0.0 1.0 0.00 0.02 0.02 81 982.8
20260501224519 39 53 0.0 2.0 0.00 0.02 0.02 81 982.7
20260501223520 39 12 0.0 1.0 0.00 0.02 0.02 82 982.6
20260501222519 39 9 0.0 1.0 0.00 0.02 0.02 83 982.5
20260501221520 39 358 0.0 2.0 0.00 0.02 0.02 86 982.5
20260501220540 39 47 0.0 1.0 0.00 0.02 0.02 87 982.6
20260501215517 39 13 0.0 1.0 0.00 0.02 0.02 87 982.6
20260501214520 38 302 0.0 1.0 0.00 0.02 0.02 88 982.6
20260501213522 38 36 0.0 1.0 0.01 0.02 0.02 87 982.7
20260501212520 38 8 0.0 1.0 0.01 0.02 0.02 87 982.7
20260501211517 38 61 0.0 1.0 0.02 0.02 0.02 89 982.7
20260501210559 38 111 0.0 1.0 0.02 0.02 0.02 89 982.7
20260501205518 38 86 0.0 1.0 0.02 0.02 0.02 88 982.9
20260501204521 38 87 0.0 1.0 0.02 0.02 0.02 87 982.9
20260501203519 38 284 0.0 1.0 0.01 0.01 0.01 85 983.0
20260501202518 39 303 0.0 2.0 0.01 0.01 0.01 83 983.0
20260501201540 39 307 0.0 2.0 0.00 0.00 0.00 80 983.0
20260501200518 40 278 0.0 2.0 0.00 0.00 0.00 76 983.1
20260501195520 40 319 0.0 2.0 0.00 0.00 0.00 73 982.8
20260501194519 41 266 1.0 3.0 0.00 0.00 0.00 70 982.7
20260501193519 41 350 1.0 3.0 0.00 0.00 0.00 70 982.6
20260501192519 42 308 1.0 5.0 0.00 0.00 0.00 69 982.5
20260501191520 43 261 2.0 6.0 0.00 0.00 0.00 66 982.3
20260501190539 43 14 2.0 4.0 0.00 0.00 0.00 66 981.7
20260501185517 41 37 2.0 10.0 0.00 0.00 0.00 69 981.9
20260501184520 41 259 1.0 4.0 0.00 0.00 0.00 70 981.9
20260501183519 40 347 1.0 3.0 0.00 0.00 0.00 73 982.4
20260501182520 40 324 1.0 3.0 0.00 0.00 0.00 72 982.5
20260501181557 40 35 1.0 6.0 0.00 0.00 0.00 73 982.3
20260501180638 40 313 1.0 6.0 0.00 0.00 0.00 75 982.4
20260501175520 40 51 1.0 3.0 0.00 0.00 0.00 77 982.7
20260501174518 40 38 1.0 3.0 0.00 0.00 0.00 76 983.1
20260501173517 40 329 1.0 2.0 0.00 0.00 0.00 73 983.0
20260501172539 40 291 1.0 2.0 0.00 0.00 0.00 69 983.0
20260501171518 40 300 1.0 2.0 0.00 0.00 0.00 68 983.1
20260501170521 41 312 1.0 4.0 0.00 0.00 0.00 67 983.1
20260501165518 41 45 2.0 4.0 0.00 0.00 0.00 67 982.9
20260501164518 40 16 2.0 7.0 0.00 0.00 0.00 67 982.9
20260501163518 40 335 1.0 3.0 0.00 0.00 0.00 68 983.2
20260501161519 40 56 2.0 4.0 0.00 0.00 0.00 68 982.8
20260501160519 39 7 1.0 4.0 0.00 0.00 0.00 70 982.9
20260501155540 38 44 1.0 3.0 0.00 0.00 0.00 72 983.0
20260501154539 38 312 1.0 3.0 0.00 0.00 0.00 72 983.3
20260501153539 37 42 1.0 4.0 0.00 0.00 0.00 73 983.1
20260501152520 37 317 2.0 5.0 0.00 0.00 0.00 74 983.3
20260501151519 37 40 1.0 5.0 0.00 0.00 0.00 75 983.3
20260501150520 36 64 1.0 3.0 0.00 0.00 0.00 76 983.4
20260501145520 37 32 1.0 3.0 0.00 0.00 0.00 76 983.7
20260501144518 36 49 2.0 3.0 0.00 0.00 0.00 76 983.8
20260501143517 36 18 1.0 3.0 0.00 0.00 0.00 76 984.0
20260501142517 36 309 1.0 4.0 0.00 0.00 0.00 74 983.9
20260501141523 36 41 1.0 3.0 0.00 0.00 0.00 73 983.9